Location: Unspecified
(44.0704°N, 88.6889°W)
Time: 02:57:22
(UTC+02:00)

Tiros 1 despin weight - All Passes

Search period start: 17 June 2019 00:00
Search period end: 27 June 2019 00:00
Orbit: 595 x 642 km, 48.2° (Epoch: 15 June)

Date Brightness Start Highest point End Pass type
(mag) Time Alt. Az. Time Alt. Az. Time Alt. Az.
17 Jun - 08:33:32 10° SSW 08:37:35 36° SE 08:41:39 10° ENE visible
17 Jun - 10:14:33 10° WSW 10:18:58 70° NNW 10:23:24 10° ENE visible
17 Jun - 11:56:36 10° WNW 12:00:54 49° N 12:05:13 10° ENE daylight
17 Jun - 13:38:19 10° WNW 13:42:46 84° NNE 13:47:14 10° ESE daylight
17 Jun - 15:20:16 10° W 15:24:00 27° SW 15:27:46 10° SSE daylight
18 Jun - 07:10:49 10° SSE 07:13:11 14° SE 07:15:32 10° ESE visible
18 Jun - 08:49:42 10° SW 08:54:05 62° SSE 08:58:27 10° ENE visible
18 Jun - 10:31:23 10° W 10:35:44 54° N 10:40:05 10° ENE visible
18 Jun - 12:13:22 10° WNW 12:17:43 54° N 12:22:05 10° E daylight
18 Jun - 13:55:00 10° WNW 13:59:23 63° SSW 14:03:47 10° SE daylight
18 Jun - 15:37:50 10° W 15:40:18 15° SW 15:42:46 10° SSW daylight
19 Jun - 07:25:46 10° SSW 07:29:28 26° SE 07:33:09 10° E visible
19 Jun - 09:06:15 10° WSW 09:10:41 85° NNW 09:15:07 10° ENE visible
19 Jun - 10:48:15 10° WNW 10:52:32 49° N 10:56:51 10° ENE visible
19 Jun - 12:30:03 10° WNW 12:34:29 70° NNE 12:38:54 10° ESE daylight
19 Jun - 14:11:48 10° WNW 14:15:53 37° SW 14:19:59 10° SSE daylight
20 Jun - 07:41:39 10° SW 07:45:53 46° SSE 07:50:08 10° ENE visible
20 Jun - 09:23:00 10° W 09:27:23 62° NNW 09:31:47 10° ENE visible
20 Jun - 11:05:03 10° WNW 11:09:22 50° N 11:13:41 10° E visible
20 Jun - 12:46:43 10° WNW 12:51:09 82° SSW 12:55:35 10° ESE daylight
20 Jun - 14:28:55 10° W 14:32:15 21° SW 14:35:34 10° S daylight
21 Jun - 06:18:16 10° S 06:21:23 19° SE 06:24:29 10° E visible
21 Jun - 07:57:59 10° WSW 08:02:25 76° SSE 08:06:51 10° ENE visible
21 Jun - 09:39:51 10° W 09:44:11 51° N 09:48:30 10° ENE visible
21 Jun - 11:21:47 10° WNW 11:26:09 59° NNE 11:30:32 10° E visible
21 Jun - 13:03:25 10° WNW 13:07:43 50° SSW 13:12:00 10° SE daylight
21 Jun - 14:47:27 10° WSW 14:48:29 11° SW 14:49:32 10° SW daylight
22 Jun - 06:33:43 10° SSW 06:37:44 33° SE 06:41:43 10° E visible
22 Jun - 08:14:38 10° WSW 08:19:05 74° NNW 08:23:31 10° ENE visible
22 Jun - 09:56:42 10° WNW 10:01:00 48° N 10:05:18 10° ENE visible
22 Jun - 11:38:27 10° WNW 11:42:53 80° NNE 11:47:19 10° ESE daylight
22 Jun - 13:20:20 10° W 13:24:09 29° SW 13:27:59 10° SSE daylight
23 Jun - 05:11:16 10° SSE 05:13:20 13° SE 05:15:24 10° ESE visible
23 Jun - 06:49:50 10° SW 06:54:12 58° SSE 06:58:34 10° ENE visible
23 Jun - 08:31:27 10° W 08:35:50 56° NNW 08:40:11 10° ENE visible
23 Jun - 10:13:28 10° WNW 10:17:49 53° N 10:22:09 10° E visible
23 Jun - 11:55:07 10° WNW 11:59:30 68° SSW 12:03:54 10° SE daylight
23 Jun - 13:37:46 10° W 13:40:28 16° SW 13:43:10 10° S daylight
24 Jun - 05:26:00 10° SSW 05:29:37 24° SE 05:33:13 10° E visible
24 Jun - 07:06:19 10° WSW 07:10:48 90° NNW 07:15:15 10° ENE visible
24 Jun - 08:48:19 10° W 08:52:38 49° N 08:56:56 10° ENE visible
24 Jun - 10:30:10 10° WNW 10:34:35 66° NNE 10:38:59 10° E visible
24 Jun - 12:11:53 10° WNW 12:16:01 40° SW 12:20:09 10° SE daylight
25 Jun - 05:41:47 10° SW 05:46:01 42° SE 05:50:14 10° ENE visible
25 Jun - 07:23:03 10° W 07:27:30 65° NNW 07:31:54 10° ENE visible
25 Jun - 09:05:08 10° WNW 09:09:27 49° N 09:13:46 10° E visible
25 Jun - 10:46:50 10° WNW 10:51:16 87° SSW 10:55:41 10° ESE visible
25 Jun - 12:28:57 10° W 12:32:24 23° SW 12:35:51 10° S daylight
26 Jun - 04:18:34 10° S 04:21:33 17° SE 04:24:29 10° E visible
26 Jun - 05:58:05 10° SW 06:02:33 71° SSE 06:06:59 10° ENE visible
26 Jun - 07:39:54 10° W 07:44:16 52° N 07:48:36 10° ENE visible
26 Jun - 09:21:53 10° WNW 09:26:15 57° NNE 09:30:36 10° E visible
26 Jun - 11:03:32 10° WNW 11:07:51 54° SSW 11:12:09 10° SE visible
26 Jun - 12:47:02 10° WSW 12:48:39 12° SW 12:50:18 10° SSW daylight
